Voltar ao catálogo

KUIPER-00136

AtivoComunicaçõesLEO
NORAD 65962·PAYLOAD·🇺🇸 United States

Lançado Oct 14, 2025 de Cape Canaveral Space Force Station

Loading…

Próximas Passagens (próximas 24 horas)

TLE

AtualizadoSource: CelesTrak SupGP

Época: Sep 14, 2026, 15:54 UTC

1 65962C 25228R   26257.66292824 -.00000765  00000+0 -10016-3 0  2575
2 65962  51.8994 232.5140 0000856  44.8759 345.2715 14.79942055    13

Acompanhe KUIPER-00136 em tempo real com AllMySat

Download on the App Store